Weather History for KSSF - December, 2012

Change the Weather History Date:

Saturday, December 15, 2012

  Actual Average Record
Temperature  
Mean Temperature 66 °F -  
Max Temperature 72 °F 62 °F 79 °F (2010)
Min Temperature 60 °F 38 °F 30 °F (2013)
Cooling Degree Days 1    
Growing Degree Days 16 (Base 50)    
Moisture  
Dew Point 58 °F    
Average Humidity 76    
Maximum Humidity 100    
Minimum Humidity 43    
Precipitation  
Precipitation 0.01 in - - ()
Sea Level Pressure  
Sea Level Pressure 29.89 in    
Wind  
Wind Speed 5 mph (NE)    
Max Wind Speed 12 mph    
Max Gust Speed -    
Visibility 8 miles    
Events Rain    
Averages and records for this station are not official NWS values.
T = Trace of Precipitation, MM = Missing Value Source: NWS Daily Summary

Daily Weather History Graph

Daily Weather History Graph

Search for Another Location

Airport or City:

Trip Planner

Search our weather history database for the weather conditions in past years. The results will help you decide how hot, cold, wet, or windy it might be!

Date:

Astronomy

Dec. 15, 2012 Rise Set
Actual Time 7:21 AM CST 5:37 PM CST
Civil Twilight 6:54 AM CST 6:03 PM CST
Nautical Twilight 6:25 AM CST 6:33 PM CST
Astronomical Twilight 5:56 AM CST 7:02 PM CST
Moon 9:22 AM CST (12/15) 8:33 PM CST (12/15)
Length of Visible Light 11h 08m
Length of Day
10h 16m
Waxing Crescent, 8% of the Moon is Illuminated
Dec 15
Waxing Crescent
Dec 19
First Quarter
Dec 28
Full
Jan 4
Last Quarter
Jan 11
New

Hourly Weather History & Observations

Time (CST) Temp. Dew Point Humidity Pressure Visibility Wind Dir Wind Speed Gust Speed Precip Events Conditions
12:53 AM 71.1 °F 66.0 °F 84% 29.87 in 10.0 mi SSE 5.8 mph - N/A   Overcast
1:53 AM 71.1 °F 66.0 °F 84% 29.88 in 10.0 mi SSE 4.6 mph - N/A   Overcast
2:53 AM 69.1 °F 66.0 °F 90% 29.88 in 10.0 mi Calm Calm - N/A   Overcast
3:53 AM 68.0 °F 66.9 °F 96% 29.88 in 5.0 mi NNE 3.5 mph - 0.00 in Rain Light Rain
4:53 AM 68.0 °F 68.0 °F 100% 29.87 in 4.0 mi NE 4.6 mph - 0.01 in Rain Light Rain
5:49 AM 66.2 °F 66.2 °F 100% 29.89 in 4.0 mi ENE 4.6 mph - 0.00 in   Overcast
5:53 AM 66.9 °F 66.9 °F 100% 29.87 in 4.0 mi East 3.5 mph - 0.00 in   Overcast
6:27 AM 66.2 °F 66.2 °F 100% 29.90 in 4.0 mi East 3.5 mph - N/A   Mostly Cloudy
6:41 AM 66.2 °F 66.2 °F 100% 29.90 in 4.0 mi ENE 3.5 mph - N/A   Overcast
6:53 AM 66.9 °F 66.9 °F 100% 29.88 in 4.0 mi ESE 4.6 mph - N/A   Overcast
7:15 AM 66.2 °F 66.2 °F 100% 29.92 in 4.0 mi Calm Calm - N/A   Overcast
7:39 AM 66.2 °F 66.2 °F 100% 29.92 in 4.0 mi North 8.1 mph - N/A   Overcast
7:48 AM 66.2 °F 64.4 °F 94% 29.92 in 6.0 mi NNE 11.5 mph - N/A   Overcast
7:53 AM 66.0 °F 64.9 °F 96% 29.91 in 7.0 mi NE 6.9 mph - N/A   Overcast
8:16 AM 64.4 °F 60.8 °F 88% 29.94 in 10.0 mi North 5.8 mph - N/A   Overcast
8:53 AM 64.9 °F 57.9 °F 78% 29.95 in 10.0 mi North 6.9 mph - N/A   Overcast
9:22 AM 64.4 °F 55.4 °F 73% 29.96 in 10.0 mi NNE 5.8 mph - N/A   Overcast
9:53 AM 66.0 °F 55.0 °F 68% 29.94 in 10.0 mi NNE 6.9 mph - N/A   Overcast
10:53 AM 68.0 °F 52.0 °F 56% 29.94 in 10.0 mi NNE 4.6 mph - N/A   Overcast
11:53 AM 70.0 °F 53.1 °F 55% 29.91 in 10.0 mi NNE 6.9 mph - N/A   Overcast
12:53 PM 70.0 °F 50.0 °F 49% 29.88 in 10.0 mi NNE 8.1 mph - N/A   Overcast
1:53 PM 72.0 °F 48.0 °F 43% 29.86 in 10.0 mi North 5.8 mph - N/A   Overcast
2:53 PM 72.0 °F 48.9 °F 44% 29.84 in 10.0 mi NNE 6.9 mph - N/A   Mostly Cloudy
3:53 PM 72.0 °F 48.9 °F 44% 29.84 in 10.0 mi NNE 5.8 mph - N/A   Overcast
4:15 PM 71.6 °F 48.2 °F 43% 29.86 in 10.0 mi NNE 6.9 mph - N/A   Scattered Clouds
4:53 PM 70.0 °F 51.1 °F 51% 29.85 in 10.0 mi NNE 3.5 mph - N/A   Clear
5:53 PM 64.9 °F 51.1 °F 61% 29.85 in 10.0 mi Calm Calm - N/A   Clear
6:53 PM 60.1 °F 52.0 °F 75% 29.83 in 10.0 mi East 5.8 mph - N/A   Clear
7:53 PM 63.0 °F 50.0 °F 63% 29.85 in 10.0 mi North 3.5 mph - N/A   Partly Cloudy
8:53 PM 63.0 °F 50.0 °F 63% 29.87 in 10.0 mi NNW 8.1 mph - N/A   Partly Cloudy
9:53 PM 62.1 °F 52.0 °F 70% 29.88 in 10.0 mi Calm Calm - N/A   Scattered Clouds
10:53 PM 60.1 °F 52.0 °F 75% 29.86 in 10.0 mi Calm Calm - N/A   Partly Cloudy
11:53 PM 62.1 °F 52.0 °F 70% 29.84 in 10.0 mi Calm Calm - N/A   Mostly Cloudy